Location: *
(18.5200°S, 46.4500°E)
Time: 22:07:27
(UTC+00:00)

Cosmos 2123 Rocket - Pass Details

Date: 19 July 2019
Orbit: 962 x 991 km, 82.9° (Epoch: 23 August)

Event Time Altitude Azimuth Distance (km) Brightness Sun altitude
Rises 14:53:08 0° 5° (N) 3,662 7.2 -4.8°
Reaches altitude 10° 14:55:39 10° 8° (N) 2,725 6.5 -5.4°
Maximum altitude 15:01:49 63° 88° (E) 1,098 4.1 -6.8°
Drops below altitude 10° 15:08:04 10° 167° (SSE) 2,765 6.1 -8.2°
Sets 15:10:38 0° 170° (S) 3,720 6.8 -8.7°
